Find Starlink 32386

NORAD ID: 61213 Int'l Des: 2024-171 Owner: SPXS Country: US Constellation: starlink operational
LEOCIRCULAR

当前视图

正在加载3D地球...

About Starlink 32386

Starlink 32386 (NORAD 61213) is a starlink constellation satellite (v2 mini) launched Sep 20, 2024 by SPXS of US. It operates in LEO, CIRCULAR orbit with a mass of 730.00 kg.

关于 Starlink 32386

正在加载描述...

即将过境

Passes for default location (London). Set your location on the main map for personalized predictions.

高度历史

Loading altitude history...

两行轨道根数

1 61213U 24171P 26171.26923906 -.00000157 00000-0 64904-5 0 9994
2 61213 53.1576 204.5706 0001122 81.8864 278.2266 15.34379215 98096
Epoch: Jun 20, 2026 • Age: 6 hours

当前状态

高度 477.2 km
速度 7.63 km/s
星下点 -41.65°S, 66.08°E
发射日期 Sep 20, 2024
运行时间 1.7 years
类型 internet

技术详情

分类 Payload
质量 730.00 kg
干质量 700.00 kg
总质量 730.00 kg
长度 0.30 m
直径 4.10 m
跨度 29.00 m
形状 Box + pan
制造商 SPXS
平台类型 Starlink V2M
阶段状态 In Orbit
所有者/国家 SPXS/US

Most Searched